Location: Boston
(42.3580°N, 71.0600°W)
Time: 11:41:11
(UTC-04:00)

Vanguard 2 - Visible Passes

Search period start: 22 October 2017 00:00
Search period end: 01 November 2017 00:00
Orbit: 554 x 2939 km, 32.9° (Epoch: 21 October)

Date Brightness Start Highest point End Pass type
(mag) Time Alt. Az. Time Alt. Az. Time Alt. Az.
22 Oct 11.9 05:14:04 10° S 05:23:40 17° SE 05:32:10 10° ESE visible
23 Oct 11.8 05:29:23 10° S 05:41:35 24° SE 05:51:58 10° E visible
24 Oct 11.5 05:45:36 10° SSW 05:59:31 30° SSE 06:11:02 10° E visible
25 Oct 11.9 03:58:36 10° SSE 04:07:07 15° SE 04:15:14 10° ESE visible
25 Oct 11.3 06:02:21 10° SSW 06:17:29 36° SSE 06:29:42 10° E visible
26 Oct 11.7 04:13:19 10° S 04:24:52 21° SE 04:35:41 10° E visible
26 Oct 11.1 06:19:31 10° SW 06:35:30 42° SSE 06:48:09 10° E visible
27 Oct 11.5 04:29:12 10° SSW 04:42:37 28° SE 04:55:05 10° E visible
27 Oct 11.0 06:36:59 10° SW 06:53:33 48° SSE 07:06:26 10° E visible
28 Oct 11.8 02:45:06 10° SSE 02:50:34 12° SE 02:56:05 10° ESE visible
28 Oct 11.3 04:45:44 10° SSW 05:00:27 34° SSE 05:13:58 10° E visible
29 Oct 11.6 02:59:12 11° SSE 03:08:07 18° SE 03:18:02 10° E visible
29 Oct 11.1 05:02:42 10° SW 05:18:19 41° SSE 05:32:33 10° E visible
30 Oct 11.4 03:17:04 16° S 03:25:41 24° SE 03:38:00 10° E visible
30 Oct 11.0 05:20:01 10° SW 05:36:16 47° SSE 05:50:57 10° E visible
31 Oct 11.2 03:34:48 20° S 03:43:20 30° SE 03:57:11 10° E visible
31 Oct 10.8 05:37:34 10° SW 05:54:17 52° SSE 06:09:14 10° E visible
